Simultaneous Nadir Overpasses (SNOs) Predictions

Prediction of SNOs between GOES-16 and LANDSAT-8 Satellite Orbit:

Table of predicted SNOs for the next 14.0 days since TLE Epoch: 4/13/2024
Index Date Time (GOES-16) GOES-16 Lat,Lon LANDSAT-8 Lat,Lon Distance(km) Time Diff (sec)
1 04/13/2024 14:56:32 0.02, -75.21 -0.89, -70.97 482.52 80
2 04/14/2024 03:17:55 -0.02, -75.21 -0.21, -76.17 108.45 80
3 04/16/2024 03:03:02 -0.02, -75.22 0.41, -73.21 228.74 80
4 04/16/2024 15:24:17 0.01, -75.23 0.69, -78.36 356.65 80
5 04/18/2024 15:12:04 0.01, -75.25 0.04, -75.41 18.13 80
6 04/20/2024 15:02:31 0.01, -75.27 -0.61, -72.45 321.39 80
7 04/21/2024 03:23:54 -0.01, -75.28 -0.53, -77.63 268.54 80
8 04/23/2024 03:09:01 -0.01, -75.31 0.15, -74.68 71.90 80
9 04/25/2024 02:56:47 -0.00, -75.34 0.79, -71.72 412.56 80
10 04/25/2024 15:18:01 0.00, -75.36 0.35, -76.87 172.28 80
